Regional Weather Roundup
Issued by NWS

Home | Current Version | Previous Version | Text Only | Print | Product List | Glossary Off
Versions: 1 2 3 4 5 6 7 8 9 10 11 12 13 14 15 16 17 18 19 20 21 22 23 24 25 26 27 28 29 30 31 32 33 34 35 36 37 38 39 40 41 42 43 44 45 46 47 48 49 50

000
ASUS43 KIND 270959
RWRIN

WEATHER ROUNDUP FOR INDIANA
NATIONAL WEATHER SERVICE INDIANAPOLIS IN
600 AM EDT WED JUL 27 2016

NOTE: "FAIR" INDICATES FEW OR NO CLOUDS BELOW 12,000 FEET WITH NO
SIGNIFICANT WEATHER AND/OR OBSTRUCTIONS TO VISIBILITY.

* - STATION DOES NOT REPORT WEATHER SUCH AS PRECIPITATION OR FOG.

+ - STATION NOT QUALITY CONTROLLED BY THE NATIONAL WEATHER SERVICE.
    USE DATA WITH CAUTION...ESPECIALLY DEWPOINT AND RELATIVE
    HUMIDITY OBSERVATIONS.

INZ001>003-010>013-019-020-271100-
NORTHWEST INDIANA

CITY           SKY/WX    TMP DP  RH WIND       PRES   REMARKS
KNOX *+        PTCLDY    61  61 100 CALM      30.02R
MONTICELLO +   FOG       64  60  87 CALM      30.01R VSB 1/2
RENSSELAER +   CLEAR     63  63 100 CALM      30.03R FOG

$$

LMZ046-743>745-271100-
SOUTHERN LAKE MICHIGAN

STATION/POSITION TIME  TEMP    WIND        PRES    WAVE
                       AIR SEA DIR/SP/G            HT
                 (UTC) (F)     (DEG/KT/KT) (MB)    (FT)
BURNS HARBOR     0902   71     190/  7/  8 1016.3S
MICHIGAN CITY    0900   71     190/  4/  4   N/A
5NW MICH CITY    0900   75 76  230/  4/  6   N/A     0

$$

INZ004-005-014>016-021>024-271100-
NORTH CENTRAL INDIANA

CITY           SKY/WX    TMP DP  RH WIND       PRES   REMARKS
GOSHEN         FOG       63  60  90 CALM      30.03R VSB 1/4
PERU/GRISSOM   CLEAR     64  64 100 NW2       30.01R FOG
SOUTH BEND     MOCLDY    63  61  93 CALM      30.04R

$$

INZ006>009-017-018-025>027-271100-
NORTHEAST INDIANA

CITY           SKY/WX    TMP DP  RH WIND       PRES   REMARKS
ANGOLA *+      MOCLDY    61  52  72 CALM      30.02S
FORT WAYNE     PTCLDY    63  60  90 CALM      30.02R

$$

INZ028-029-035-036-043>045-051>053-271100-
WEST CENTRAL INDIANA

CITY           SKY/WX    TMP DP  RH WIND       PRES   REMARKS
CRAWFORDSVL +  PTCLDY    61  61 100 CALM      30.03R FOG
LAFAYETTE      PTCLDY    63  63 100 CALM      30.02R FOG
TERRE HAUTE    CLEAR     68  66  93 CALM      30.01R

$$

INZ030>032-037>040-046>048-054>057-064-065-271100-
CENTRAL INDIANA

CITY           SKY/WX    TMP DP  RH WIND       PRES   REMARKS
INDIANAPOLIS   MOCLDY    70  66  87 NW3       30.02R
-EAGLE CREEK   PTCLDY    69  65  86 CALM      30.01R
KOKOMO *+      CLEAR     63  57  82 NW3       30.03R
SHELBYVILLE    PTCLDY    68  65  90 CALM      30.01R

$$

INZ033-034-041-042-049-050-058-059-271100-
EAST CENTRAL INDIANA

CITY           SKY/WX    TMP DP  RH WIND       PRES   REMARKS
MUNCIE         CLOUDY    65  63  93 CALM      30.02R FOG

$$

INZ060-061-067>069-081>083-085>088-271100-
SOUTHWEST INDIANA

CITY           SKY/WX    TMP DP  RH WIND       PRES   REMARKS
EVANSVILLE     PTCLDY    75  74  96 CALM      29.98R
HUNTINGBURG *+ CLEAR     73  70  88 CALM      29.98R

$$

INZ062-063-066-070>080-084-089>092-271100-
SOUTH CENTRAL AND SOUTHEAST INDIANA

CITY           SKY/WX    TMP DP  RH WIND       PRES   REMARKS
BLOOMINGTON    PTCLDY    69  67  93 CALM      30.01R FOG
MADISON *+     CLOUDY    72  72 100 CALM      30.02S VSB<1/4

$$





USA.gov is the U.S. government's official web portal to all federal, state and local government web resources and services.